Location: Donigala
(39.9381°N, 8.5719°E)
Time: 08:41:21
(UTC+00:00)

Daily predictions for brighter satellites

Satellite Brightness Start Highest point End
(mag) Time Altitude Azimuth Time Altitude Azimuth Time Altitude Azimuth
Cosmos 1606 Rocket 4.1 17:12:05 10° N 17:16:04 35° ENE 17:20:01 10° SE
NOAA 6 4.0 17:12:29 10° SSE 17:17:37 76° ENE 17:22:48 10° N
ATLAS CENTAUR R/B 4.1 17:14:33 10° W 17:17:41 17° NW 17:20:44 10° N
Cosmos 1892 Rocket 4.2 17:21:17 10° SSE 17:25:15 33° E 17:29:13 10° NNE
Cosmos 468 Rocket 4.2 17:25:07 10° N 17:30:05 46° ENE 17:34:59 10° SE
Cosmos 1844 Rocket 2.9 17:27:48 10° NNW 17:33:10 45° ENE 17:38:27 10° SE
COSMO-SKYMED 1 2.5 17:29:36 10° NNE 17:33:58 81° E 17:38:18 10° S
Cosmos 1954 Rocket 4.3 17:33:13 10° SSW 17:38:27 73° WNW 17:43:41 10° NNE
USA 215 3.3 17:31:58 10° SE 17:38:30 79° NE 17:45:05 10° NW
Lacrosse 5 2.7 17:34:18 10° WSW 17:39:13 48° NW 17:44:11 10° NE
CZ-4B DEB 4.2 17:34:13 10° SSE 17:39:33 60° ENE 17:44:55 10° N
CZ-4B R/B 3.8 17:36:06 10° SE 17:40:45 32° ENE 17:45:30 10° N
Meteor 1-11 4.3 17:37:42 10° S 17:43:31 89° WNW 17:49:21 10° N
Cosmos 1461 3.4 17:39:42 10° SW 17:43:52 62° NW 17:48:16 10° NNE
Cosmos 1892 3.4 17:41:10 10° SSW 17:44:48 55° W 17:48:30 10° N
Cosmos 1763 Rocket 3.4 17:40:33 10° NNW 17:45:44 81° ENE 17:50:50 10° SSE
Lacrosse 5 rocket 2.5 17:43:22 10° NNW 17:46:10 21° NE 17:47:25 18° ENE
Cosmos 1726 Rocket 3.5 17:43:34 10° N 17:47:51 61° E 17:52:06 10° SSE
ATLAS 2AS CENTAUR R/B 2.6 17:42:55 10° NNW 17:49:53 83° ENE 17:56:27 10° SE
Cosmos 1850 Rocket 4.2 17:46:15 10° S 17:51:11 47° ESE 17:56:09 10° NNE
Cosmos 1825 2.2 17:47:36 10° S 17:51:16 80° W 17:54:58 10° N
Cosmos 1244 Rocket 4.5 17:45:00 10° N 17:51:19 68° E 17:57:31 10° SSE
Cosmos 1844 3.8 17:46:45 10° NNW 17:52:28 56° ENE 17:58:05 10° SE
Cosmos 2219 Rocket 2.7 17:47:29 10° S 17:52:34 37° ESE 17:57:33 11° NE
Cosmos 2360 Rocket 2.2 17:47:27 10° SSW 17:53:05 88° ESE 17:58:47 10° NNE
Cosmos 540 Rocket 3.4 17:51:50 10° NNW 17:56:57 64° ENE 18:02:01 10° SSE
Cosmos 1626 Rocket 4.5 17:55:40 10° SE 17:59:10 25° E 18:00:23 22° ENE
Cosmos 841 Rocket 3.9 17:54:20 10° N 17:59:18 39° ENE 18:04:12 10° SE
Cosmos 1741 Rocket 4.1 17:54:29 10° S 17:59:39 54° ESE 18:04:50 10° NNE
CZ-4 R/B 2.1 17:57:43 10° SE 18:01:21 31° ENE 18:04:58 10° N
CZ-4C R/B 4.0 17:59:42 10° N 18:03:22 50° WNW 18:06:49 10° SSW
Okean O Rocket 2.3 17:59:37 10° SE 18:03:30 31° ENE 18:07:23 10° N
IRIDIUM 104 4.3 17:58:40 10° N 18:03:50 61° E 18:08:59 10° SSE
Cosmos 1745 Rocket 4.3 17:58:41 10° N 18:04:33 42° ENE 18:10:20 10° SSE
Cosmos 2333 Rocket 2.1 17:59:13 10° SSW 18:04:49 72° ESE 18:10:30 10° NNE
Cosmos 2322 Rocket 3.1 18:00:43 10° SW 18:06:07 49° WNW 18:11:34 10° NNE
Cosmos 2278 Rocket 4.1 18:04:41 10° NNE 18:05:53 11° NE 18:05:53 11° NE
Atlas Centaur 2 3.9 18:03:50 10° SW 18:11:04 38° SSE 18:16:27 19° ESE
IRIDIUM 114 4.2 18:07:44 10° N 18:12:59 75° E 18:18:11 10° S
Okean 1-7 Rocket 4.1 18:09:34 10° SSE 18:13:34 35° E 18:14:53 29° NE
BlueWalker 3 4.3 18:12:39 10° NNW 18:14:18 12° N 18:14:55 12° NNE
RESURS DK-1 2.2 18:11:39 10° NNW 18:15:46 75° ENE 18:19:51 10° SSE
MINOTAUR 4 R/B 3.8 18:12:48 11° NNE 18:16:07 83° ESE 18:19:31 10° SSW
Haruka 4.0 18:13:23 10° SW 18:16:26 22° S 18:17:39 18° SE
Cosmos 1340 2.4 18:12:48 10° N 18:16:27 63° E 18:20:04 10° SSE
COSMOS 2428 3.1 18:14:43 10° S 18:19:53 38° ESE 18:21:42 30° ENE
SL-16 R/B 4.1 18:17:01 10° WSW 18:21:44 27° NW 18:26:30 10° N
IRIDIUM 103 4.3 18:16:54 10° N 18:22:09 90° WSW 18:27:22 10° S
Cosmos 1709 Rocket 4.4 18:17:16 10° N 18:22:53 36° ENE 18:26:30 20° SE
SL-4 R/B 3.7 18:20:45 10° NNW 18:22:54 16° N 18:22:54 16° N
ISS -1.2 18:20:52 10° W 18:23:30 21° SW 18:26:06 10° S
Cosmos 1553 Rocket 4.1 18:18:28 10° SSW 18:24:31 75° W 18:30:42 10° N
Cosmos 2333 4.2 18:19:28 10° SSW 18:25:04 81° WNW 18:30:45 10° NNE
MOS 1-B 4.3 18:19:21 10° SSE 18:25:09 84° ENE 18:30:59 10° NNW
YAOGAN 1 2.6 18:22:01 10° S 18:26:19 80° WSW 18:30:39 10° NNW
Cosmos 1417 Rocket 4.4 18:21:38 10° S 18:27:54 84° E 18:34:08 10° N
Cosmos 2058 Rocket 3.0 18:23:41 10° N 18:28:07 86° W 18:32:33 10° S
Feng Yun 1-1 Rocket 4.2 18:26:27 10° SSE 18:31:54 59° ENE 18:37:16 10° N
Cosmos 968 Rocket 3.7 18:29:47 10° S 18:34:40 44° ESE 18:34:47 44° E
BREEZE-M DEB (TANK) 3.9 18:22:07 10° WSW 18:38:08 69° NNW 18:40:19 34° NE
Cosmos 883 Rocket 4.5 18:34:15 10° S 18:40:21 59° E 18:46:34 10° NNE
Delta 2 Rocket 4.1 18:41:25 10° WSW 18:44:01 33° SSW 18:44:01 33° SSW
Cosmos 2322 3.6 18:39:49 10° SSW 18:45:32 85° ESE 18:48:46 27° NNE
Cosmos 44 Rocket 3.9 18:45:03 10° SW 18:49:36 52° NW 18:51:43 29° N
S3M 4.3 18:53:59 10° SSW 19:00:19 67° W 19:06:41 10° N
Cosmos 2315 Rocket 4.1 19:15:35 10° SSW 19:21:53 75° W 19:28:17 10° N
Lacrosse 5 4.1 19:20:17 10° NW 19:23:19 16° NNW 19:24:06 15° N
Lacrosse 5 rocket 3.6 19:21:40 10° NW 19:22:52 19° WNW 19:22:52 19° WNW
BREEZE-M DEB (TANK) 3.9 19:25:32 10° WNW 19:30:08 78° NNE 19:30:46 73° ENE
CZ-4 R/B 4.0 19:33:14 10° SW 19:36:15 20° W 19:39:16 10° NW
Cosmos 2219 Rocket 3.8 19:31:41 10° WSW 19:36:32 30° WNW 19:39:20 20° NNW
Okean O Rocket 3.9 19:36:24 10° SSW 19:39:50 22° W 19:43:17 10° NW
Cosmos 2278 Rocket 4.2 19:46:11 10° NNW 19:47:46 19° NNW 19:47:46 19° NNW
Atlas Centaur 2 3.8 19:52:20 10° WSW 19:58:55 41° SSW 19:58:55 41° SSW
COSMOS 2428 4.3 19:59:13 10° WSW 20:03:49 30° WNW 20:03:49 30° WNW
